Location: *
(2.5500°S, 65.9667°W)
Time: 12:08:48
(UTC+00:00)

Cosmos 1892 - Pass Details

Date: 26 October 2021
Orbit: 501 x 522 km, 82.5° (Epoch: 28 November)

Event Time Altitude Azimuth Distance (km) Brightness Sun altitude
Rises 23:11:11 0° 5° (N) 2,577 6.1 -14.8°
Reaches altitude 10° 23:13:19 10° 10° (N) 1,699 5.1 -15.4°
Maximum altitude 23:16:56 51° 86° (E) 640 2.7 -16.2°
Drops below altitude 10° 23:20:36 10° 163° (SSE) 1,717 5.3 -17.1°
Sets 23:22:46 0° 168° (SSE) 2,608 6.3 -17.7°
